Beatrice, NE

12:56 AM CST on February 07, 2016 (GMT -0600)
Beatrice Municipal

Weather History for KBIE - December, 2013

Change the Weather History Date:

Monday, December 9, 2013

  Actual Average Record
Temperature  
Mean Temperature 2 °F -  
Max Temperature 14 °F 38 °F 63 °F (2015)
Min Temperature -7 °F 17 °F -7 °F (2013)
Degree Days  
Heating Degree Days 62    
Moisture  
Dew Point -4 °F    
Average Humidity 71    
Maximum Humidity 89    
Minimum Humidity 55    
Precipitation  
Precipitation 0.00 in - - ()
Sea Level Pressure  
Sea Level Pressure 30.25 in    
Wind  
Wind Speed 7 mph (WSW)    
Max Wind Speed 20 mph    
Max Gust Speed 21 mph    
Visibility 10 miles    
Events Snow    
Averages and records for this station are not official NWS values.
T = Trace of Precipitation, MM = Missing Value Source: NWS Daily Summary

Daily Weather History Graph

Daily Weather History Graph

Search for Another Location

Airport or City:

Trip Planner

Search our weather history database for the weather conditions in past years. The results will help you decide how hot, cold, wet, or windy it might be!

Date:

Astronomy

Dec. 09, 2013 Rise Set
Actual Time 7:38 AM CST 5:00 PM CST
Civil Twilight 7:07 AM CST 5:31 PM CST
Nautical Twilight 6:33 AM CST 6:05 PM CST
Astronomical Twilight 6:00 AM CST 6:38 PM CST
Moon 12:31 PM CST (12/9) No Moon Set
Length of Visible Light 10h 23m
Length of Day
9h 22m
Waxing Crescent, 51% of the Moon is Illuminated
Dec 9
Waxing Crescent
Dec 17
Full
Dec 25
Last Quarter
Jan 1
New
Jan 7
First Quarter

Hourly Weather History & Observations

Time (CST) Temp. Windchill Dew Point Humidity Pressure Visibility Wind Dir Wind Speed Gust Speed Precip Events Conditions
12:15 AM 1.2 °F -6.4 °F -1.7 °F 88% 30.17 in 10.0 mi West 3.5 mph - N/A   Clear
12:35 AM 0.7 °F -7.1 °F -2.4 °F 87% 30.17 in 0.2 mi West 3.5 mph - N/A Snow Heavy Snow
12:55 AM -1.3 °F -11.4 °F -3.8 °F 89% 30.17 in 10.0 mi West 4.6 mph - N/A   Clear
1:15 AM -0.6 °F -10.6 °F -3.5 °F 88% 30.18 in 10.0 mi WNW 4.6 mph - N/A   Clear
1:35 AM 3.0 °F -10.5 °F -0.0 °F 87% 30.18 in 10.0 mi WNW 8.1 mph - N/A   Clear
1:55 AM 3.6 °F -7.3 °F -0.4 °F 84% 30.18 in 10.0 mi WNW 5.8 mph - N/A   Clear
2:15 AM 2.5 °F -8.6 °F -1.3 °F 84% 30.20 in 10.0 mi WNW 5.8 mph - N/A   Clear
2:35 AM 2.7 °F -9.7 °F -1.7 °F 82% 30.20 in 10.0 mi WNW 6.9 mph - N/A   Clear
2:55 AM 1.2 °F -11.5 °F -3.1 °F 82% 30.21 in 10.0 mi WNW 6.9 mph - N/A   Clear
3:15 AM -0.4 °F -14.7 °F -4.5 °F 83% 30.21 in 10.0 mi WNW 8.1 mph - N/A   Clear
3:35 AM -1.1 °F -14.3 °F -5.4 °F 82% 30.22 in 10.0 mi West 6.9 mph - N/A   Clear
3:55 AM -0.0 °F -14.2 °F -5.1 °F 79% 30.22 in 10.0 mi WNW 8.1 mph - N/A   Clear
4:15 AM -3.6 °F -17.3 °F -9.0 °F 78% 30.23 in 10.0 mi West 6.9 mph - N/A   Clear
4:35 AM -5.1 °F -19.1 °F -9.9 °F 80% 30.24 in 10.0 mi West 6.9 mph - N/A   Clear
4:55 AM -4.0 °F -19.0 °F -9.0 °F 79% 30.25 in 10.0 mi West 8.1 mph - N/A   Clear
5:15 AM -4.9 °F -18.8 °F -10.1 °F 78% 30.25 in 10.0 mi WNW 6.9 mph - N/A   Clear
5:35 AM -4.2 °F -16.5 °F -9.6 °F 78% 30.27 in 10.0 mi WNW 5.8 mph - N/A   Clear
5:55 AM -5.6 °F -16.5 °F -10.8 °F 78% 30.27 in 10.0 mi West 4.6 mph - N/A   Clear
6:15 AM -5.8 °F -22.4 °F -10.5 °F 80% 30.27 in 10.0 mi WNW 9.2 mph - N/A   Clear
6:35 AM -4.9 °F -20.1 °F -10.3 °F 78% 30.29 in 10.0 mi West 8.1 mph - N/A   Clear
6:55 AM -6.7 °F -22.3 °F -11.4 °F 80% 30.29 in 10.0 mi West 8.1 mph - N/A   Clear
7:15 AM -7.4 °F -18.6 °F -12.5 °F 79% 30.31 in 10.0 mi West 4.6 mph - N/A   Scattered Clouds
7:35 AM -5.8 °F -21.2 °F -10.8 °F 79% 30.31 in 10.0 mi WNW 8.1 mph - N/A   Mostly Cloudy
7:55 AM -6.5 °F -22.1 °F -11.6 °F 79% 30.31 in 10.0 mi WNW 8.1 mph - N/A   Mostly Cloudy
8:15 AM -6.5 °F -19.3 °F -11.9 °F 77% 30.32 in 10.0 mi West 5.8 mph - N/A   Clear
8:35 AM -5.4 °F -18.0 °F -10.8 °F 77% 30.33 in 10.0 mi West 5.8 mph - N/A   Mostly Cloudy
8:55 AM -5.6 °F -16.5 °F -10.8 °F 78% 30.32 in 10.0 mi West 4.6 mph - N/A   Scattered Clouds
9:15 AM -5.3 °F -17.8 °F -10.5 °F 78% 30.33 in 10.0 mi West 5.8 mph - N/A   Clear
9:35 AM -3.1 °F -15.2 °F -8.5 °F 78% 30.33 in 10.0 mi West 5.8 mph - N/A   Scattered Clouds
9:55 AM -1.5 °F -14.7 °F -7.6 °F 75% 30.34 in 10.0 mi WNW 6.9 mph - N/A   Clear
10:15 AM -0.6 °F -13.6 °F -7.4 °F 73% 30.35 in 10.0 mi West 6.9 mph - N/A   Clear
10:35 AM 1.0 °F -12.9 °F -6.0 °F 72% 30.36 in 10.0 mi West 8.1 mph - N/A   Clear
10:55 AM 3.0 °F -9.3 °F -4.9 °F 70% 30.37 in 10.0 mi West 6.9 mph - N/A   Mostly Cloudy
11:15 AM 5.2 °F -6.7 °F -3.8 °F 66% 30.36 in 10.0 mi West 6.9 mph - N/A   Overcast
11:35 AM 6.1 °F -5.6 °F -3.1 °F 66% 30.35 in 10.0 mi WNW 6.9 mph - N/A   Overcast
11:55 AM 7.9 °F -0.7 °F -2.6 °F 62% 30.34 in 10.0 mi WNW 4.6 mph - N/A   Scattered Clouds
12:15 PM 8.2 °F -4.1 °F -3.1 °F 60% 30.33 in 10.0 mi West 8.1 mph - N/A   Clear
12:35 PM 8.1 °F -2.0 °F -3.6 °F 59% 30.33 in 10.0 mi WSW 5.8 mph - N/A   Clear
12:55 PM 9.0 °F -3.2 °F -2.7 °F 59% 30.32 in 10.0 mi WSW 8.1 mph - N/A   Clear
1:15 PM 9.3 °F -2.8 °F -2.6 °F 59% 30.30 in 10.0 mi WSW 8.1 mph - N/A   Clear
1:35 PM 9.5 °F -1.5 °F -2.0 °F 60% 30.29 in 10.0 mi SW 6.9 mph - N/A   Clear
1:55 PM 9.9 °F -1.1 °F -2.2 °F 58% 30.29 in 10.0 mi SW 6.9 mph - N/A   Clear
2:15 PM 10.4 °F -1.5 °F -1.7 °F 58% 30.29 in 10.0 mi SW 8.1 mph - N/A   Clear
2:35 PM 10.9 °F -1.8 °F -2.6 °F 55% 30.27 in 10.0 mi SW 9.2 mph - N/A   Clear
2:55 PM 10.8 °F -2.8 °F -1.3 °F 58% 30.27 in 10.0 mi SSW 10.4 mph - N/A   Clear
3:15 PM 10.9 °F -0.8 °F -2.4 °F 55% 30.26 in 10.0 mi SSW 8.1 mph - N/A   Clear
3:35 PM 10.4 °F 0.8 °F -2.2 °F 57% 30.26 in 10.0 mi SW 5.8 mph - N/A   Clear
3:55 PM 11.1 °F -0.6 °F -2.2 °F 55% 30.25 in 10.0 mi SSW 8.1 mph - N/A   Clear
4:15 PM 10.6 °F -3.1 °F -0.9 °F 60% 30.24 in 10.0 mi SSW 10.4 mph - N/A   Clear
4:35 PM 10.0 °F -0.9 °F -0.9 °F 61% 30.24 in 10.0 mi SSW 6.9 mph - N/A   Clear
4:55 PM 8.4 °F -4.9 °F -2.0 °F 63% 30.25 in 10.0 mi SW 9.2 mph - N/A   Clear
5:15 PM 7.3 °F -5.2 °F -2.2 °F 65% 30.24 in 10.0 mi SSW 8.1 mph - N/A   Clear
5:35 PM 5.7 °F -9.1 °F -3.1 °F 67% 30.24 in 10.0 mi SSW 10.4 mph - N/A   Clear
5:55 PM 6.6 °F -7.1 °F -2.2 °F 67% 30.23 in 10.0 mi SSW 9.2 mph - N/A   Clear
6:15 PM 5.4 °F -9.6 °F -2.9 °F 69% 30.23 in 10.0 mi South 10.4 mph - N/A   Clear
6:35 PM 5.0 °F -8.1 °F -2.7 °F 70% 30.23 in 10.0 mi South 8.1 mph - N/A   Clear
6:55 PM 2.8 °F -8.2 °F -4.0 °F 73% 30.23 in 10.0 mi SSW 5.8 mph - N/A   Clear
7:15 PM 1.4 °F -9.9 °F -4.4 °F 77% 30.24 in 10.0 mi SSW 5.8 mph - N/A   Clear
7:35 PM 2.5 °F -11.1 °F -4.0 °F 74% 30.24 in 10.0 mi SSW 8.1 mph - N/A   Clear
7:55 PM 3.2 °F -11.3 °F -4.0 °F 72% 30.23 in 10.0 mi South 9.2 mph - N/A   Clear
8:15 PM 5.0 °F -8.1 °F -3.6 °F 68% 30.22 in 10.0 mi South 8.1 mph - N/A   Clear
8:35 PM 4.6 °F -8.5 °F -4.0 °F 67% 30.21 in 10.0 mi South 8.1 mph - N/A   Clear
8:55 PM 7.2 °F -8.9 °F -1.8 °F 67% 30.19 in 10.0 mi SSW 12.7 mph 17.3 mph N/A   Clear
9:15 PM 7.7 °F -7.4 °F -1.3 °F 67% 30.18 in 10.0 mi SSW 11.5 mph - N/A   Clear
9:35 PM 7.9 °F -7.2 °F -0.9 °F 67% 30.18 in 10.0 mi SSW 11.5 mph - N/A   Clear
9:55 PM 8.8 °F -6.8 °F -0.0 °F 67% 30.17 in 10.0 mi SSW 12.7 mph - N/A   Clear
10:15 PM 9.5 °F -5.9 °F 0.5 °F 67% 30.17 in 10.0 mi SW 12.7 mph 20.7 mph N/A   Clear
10:35 PM 9.5 °F -5.2 °F 0.7 °F 67% 30.15 in 10.0 mi SSW 11.5 mph - N/A   Clear
10:55 PM 10.4 °F -5.4 °F 1.4 °F 67% 30.15 in 10.0 mi SW 13.8 mph - N/A   Clear
11:15 PM 11.7 °F -3.2 °F 2.3 °F 66% 30.15 in 10.0 mi SW 12.7 mph - N/A   Scattered Clouds
11:30 PM 12.4 °F -3.5 °F 3.0 °F 66% 30.14 in 10.0 mi SW 15.0 mph 19.6 mph N/A   Clear
11:55 PM 14.0 °F -3.4 °F 4.1 °F 65% 30.13 in 10.0 mi SW 19.6 mph - N/A   Clear